Location: Asheville, NC
(35.6000°N, 82.5500°W)
Time: 00:28:55
(UTC-04:00)

Vanguard 1 - Pass Details

Date: 11 March 2018
Orbit: 650 x 3833 km, 34.3° (Epoch: 24 June)

Event Time Altitude Azimuth Distance (km) Brightness Sun altitude
Rises 11:50:39 0° 252° (WSW) 7,700 14.5 43.2°
Reaches altitude 10° 11:55:38 10° 252° (WSW) 6,834 14.3 43.8°
Maximum altitude 12:19:36 82° 169° (S) 3,530 13.9 46.5°
Drops below altitude 10° 12:36:50 10° 85° (E) 5,192 14.0 48.1°
Sets 12:40:02 0° 84° (E) 5,866 14.2 48.4°
